Flag Weather past 2 weeks in Kaliningrad, Russia

Now
27 °F

Overcast.


Feels Like: 20 °F
Forecast: 19 / 24 °F
Wind: 6 mph from Southeast

Location: Kaliningrad/Khrabrovo Airport

Current Time: Nov 28, 2014 at 7:54:59 AM

Latest Report: Nov 28, 2014 at 7:00 AM


Visibility: 5 mi

Pressure: 30.33 "Hg

Humidity: 86%

Dew point: 23 °F

Location of KaliningradLocation

Historic Weather in Kaliningrad — Graph

°F

Kaliningrad temperature yesterday

Maximum temperature yesterday: 36 °F (at 12:00 AM)
Minimum temperature yesterday: 27 °F (at 11:00 PM)
Average temperature yesterday: 32 °F

Past Weeks' High & Low Weather Summary

 TemperatureHumidityPressure
High46 °F (Nov 14, 12:30 PM)100% (Nov 23, 1:00 AM)30.51 "Hg (Nov 23, 1:00 AM)
Low25 °F (Nov 28, 4:00 AM)60% (Nov 18, 2:00 PM)29.95 "Hg (Nov 16, 4:00 PM)
Average38 °F85%30.23 "Hg
* Reported Nov 13 6:00 AM — Nov 28 6:30 AM, Kaliningrad, Weather by CustomWeather, © 2014

Note: Actual official high and low records may vary slightly from our data, if they occured in-between our weather recording intervals... More about our weather records

Advertising

Kaliningrad weather history for previous 24 hours

 ConditionsComfort  
Time TempWeatherWind HumidityBarometerVisibility
6:30 AM
Nov 28
27 °FOvercast.6 mph86%30.33 "Hg5 mi
6:00 AM27 °FOvercast.8 mph80%30.33 "Hg5 mi
5:30 AM27 °FOvercast.8 mph80%30.33 "Hg5 mi
5:00 AM27 °FOvercast.8 mph80%30.33 "Hg5 mi
4:30 AM25 °FOvercast.8 mph86%30.33 "Hg5 mi
4:00 AM25 °FOvercast.10 mph86%30.33 "Hg5 mi
3:00 AM27 °FOvercast.10 mph80%30.33 "Hg5 mi
2:00 AM27 °FOvercast.10 mph80%30.33 "Hg4 mi
1:00 AM27 °FOvercast.10 mph80%30.33 "Hg4 mi
12:00 AM27 °FLow clouds.10 mph86%30.33 "Hg4 mi
11:30 PM
Nov 27
27 °FLow clouds.10 mph86%30.30 "Hg4 mi
11:00 PM27 °FOvercast.10 mph86%30.30 "Hg5 mi
10:30 PM28 °FOvercast.10 mph80%30.30 "Hg4 mi
10:00 PM28 °FLow clouds.10 mph86%30.30 "Hg4 mi
9:30 PM28 °FLow clouds.10 mph86%30.30 "Hg4 mi
9:00 PM28 °FLow clouds.8 mph93%30.30 "Hg4 mi
8:30 PM28 °FIce fog.10 mph93%30.30 "Hg3 mi
8:00 PM28 °FIce fog.8 mph93%30.30 "Hg3 mi
7:30 PM30 °FIce fog.8 mph86%30.27 "Hg3 mi
7:00 PM30 °FLow clouds.8 mph86%30.27 "Hg4 mi
6:30 PM30 °FLow clouds.10 mph86%30.27 "Hg4 mi
6:00 PM30 °FMostly cloudy.8 mph86%30.27 "Hg5 mi
5:30 PM32 °FMostly cloudy.10 mph87%30.27 "Hg4 mi
5:00 PM32 °FMostly cloudy.8 mph87%30.27 "Hg4 mi
4:30 PM32 °FMostly cloudy.8 mph87%30.27 "Hg4 mi
4:00 PM32 °FMostly cloudy.8 mph87%30.24 "Hg4 mi
3:30 PM32 °FOvercast.8 mph87%30.24 "Hg5 mi
3:00 PM32 °FOvercast.10 mph87%30.24 "Hg4 mi
2:30 PM32 °FOvercast.8 mph87%30.27 "Hg4 mi
2:00 PM32 °FLow clouds.10 mph87%30.27 "Hg4 mi
1:30 PM34 °FFog.8 mph87%30.27 "Hg3 mi
1:00 PM34 °FFog.10 mph87%30.27 "Hg3 mi
12:30 PM34 °FFog.10 mph87%30.27 "Hg3 mi
12:00 PM34 °FFog.10 mph87%30.27 "Hg3 mi
11:30 AM34 °FFog.10 mph87%30.27 "Hg2 mi
11:00 AM34 °FFog.10 mph87%30.27 "Hg2 mi
10:00 AM34 °FFog.10 mph87%30.27 "Hg1 mi
9:30 AM34 °FFog.10 mph93%30.27 "Hg1 mi
9:00 AM34 °FFog.8 mph93%30.24 "Hg1 mi
8:30 AM34 °FFog.8 mph93%30.24 "Hg1 mi
8:00 AM34 °FFog.10 mph93%30.24 "Hg1 mi
7:30 AM34 °FFog.8 mph93%30.24 "Hg1 mi
7:00 AM34 °FFog.8 mph93%30.24 "Hg1 mi
Weather by CustomWeather, © 2014

See weather overviewHow to use our weather pages